Location: Deurze
(52.9838°N, 6.6090°E)
Time: 18:53:08
(UTC+00:00)

Timation 2 Rocket - Pass Details

Date: 11 March 2026
Orbit: 906 x 1073 km, 70.0° (Epoch: 20 April)

Event Time Altitude Azimuth Distance (km) Brightness Sun altitude
Rises 19:13:41 0° 227° (SW) 3,578 7.4 -16.2°
Reaches altitude 10° 19:16:16 10° 231° (SW) 2,621 6.7 -16.6°
Maximum altitude 19:22:12 58° 310° (NW) 1,062 4.5 -17.4°
Drops below altitude 10° 19:28:06 10° 30° (NNE) 2,599 6.1 -18.3°
Sets 19:30:40 0° 34° (NE) 3,547 6.8 -18.6°
